Tracking 30995 objects as of 5-Jul-2025
HD Live streaming from Space Station
objects crossing your sky now

COSMOS 1388

Track COSMOS 1388 now!
10-day predictions
COSMOS 1388 is classified as:


NORAD ID: 13375
Int'l Code: 1982-073A
Perigee: 1,399.5 km
Apogee: 1,481.3 km
Inclination: 74.0 °
Period: 114.5 minutes
Semi major axis: 7811 km
RCS: 0.6948 m2 (medium)
Launch date: July 21, 1982
Source: Commonwealth of Independent States (former USSR) (CIS)
Launch site: PLESETSK MISSILE AND SPACE COMPLEX (PKMTR)
Your satellite tracking list
OSCAR 23
Track 1 satellite(s)




NASA's NSSDC Master Catalog

Two Line Element Set (TLE):
1 13375U 82073A   25186.31242216 -.00000010  00000-0  40411-4 0  9998
2 13375  74.0146 126.2772 0052400 328.3788 149.9710 12.57501488971942
Source of the keplerian elements: AFSPC